This is the latest recevied weather packets stored in our database for station/object OK2JF-6. If no packets are shown the sender has not sent any weather packets the latest 10 day(s).
| Time | Temp. | Humidity | Pressure | Rain* | Wind** | Luminosity | Snow |
|---|---|---|---|---|---|---|---|
| 1777281243 | 17.78° C | 32% | 1094.6 hPa | 0 mm | - | 440 W/m² | - |
| 1777281183 | 17.78° C | 31% | 1094.6 hPa | 0 mm | - | 454 W/m² | - |
| 1777281124 | 17.78° C | 32% | 1094.4 hPa | 0 mm | - | 453 W/m² | - |
| 1777280283 | 16.67° C | 34% | 1094.7 hPa | 0 mm | - | 437 W/m² | - |
| 1777280109 | 16.67° C | 33% | 1094.4 hPa | 0 mm | - | 433 W/m² | - |
| 1777279983 | 16.67° C | 32% | 1094.7 hPa | 0 mm | - | 432 W/m² | - |
| 1777279863 | 16.67° C | 32% | 1094.5 hPa | 0 mm | - | 428 W/m² | - |
| 1777279563 | 16.67° C | 32% | 1094.6 hPa | 0 mm | - | 422 W/m² | - |
| 1777279504 | 17.22° C | 32% | 1094.6 hPa | 0 mm | - | 422 W/m² | - |
| 1777279443 | 17.22° C | 33% | 1094.7 hPa | 0 mm | - | 422 W/m² | - |
| 1777279384 | 17.22° C | 33% | 1094.7 hPa | 0 mm | - | 422 W/m² | - |
| 1777279323 | 16.67° C | 33% | 1094.6 hPa | 0 mm | - | 421 W/m² | - |
| 1777279263 | 16.67° C | 32% | 1094.4 hPa | 0 mm | - | 419 W/m² | - |
| 1777279144 | 16.67° C | 33% | 1094.4 hPa | 0 mm | - | 416 W/m² | - |
| 1777279083 | 16.67° C | 33% | 1094.8 hPa | 0 mm | - | 414 W/m² | - |
| 1777278677 | 15.56° C | 34% | 1094.5 hPa | 0 mm | - | 404 W/m² | - |
| 1777278378 | 15.56° C | 34% | 1094.5 hPa | 0 mm | - | 398 W/m² | - |
| 1777278183 | 15° C | 34% | 1094.5 hPa | 0 mm | - | 393 W/m² | - |
| 1777277524 | 15° C | 34% | 1094.4 hPa | 0 mm | - | 378 W/m² | - |
| 1777277477 | 15° C | 33% | 1094.6 hPa | 0 mm | - | 376 W/m² | - |
| 1777276158 | 15° C | 35% | 1094.6 hPa | 0 mm | - | 340 W/m² | - |
| 1777275663 | 15.56° C | 34% | 1094.9 hPa | 0 mm | - | 326 W/m² | - |
| 1777275483 | 15.56° C | 33% | 1094.8 hPa | 0 mm | - | 322 W/m² | - |
| 1777275063 | 15.56° C | 34% | 1094.7 hPa | 0 mm | - | 310 W/m² | - |
| 1777275003 | 15.56° C | 36% | 1094.5 hPa | 0 mm | - | 309 W/m² | - |
* Rain latest hour (hover to see other rain measurements)
** Current wind speed in m/s (hover to see current wind gust speed)